Satellite-Ground Cal/Val Region Overpasses Predictions

Prediction of Satellite NPP Overpassing Cal/Val Region: PacNW

Region Location: (Latitude: 10.00, Longitude: 139.50) to (Latitude: 22.70, Longitude: 165.60).

Table of predicted overpasses for the next 14.0 days since TLE Epoch: 8/14/2020
Interval Starting Time Starting Location Ending Time Ending Location
1 08/15/2020 02:32:57 ( 10.06, 161.48) 08/15/2020 02:36:32 ( 22.68, 158.48)
2 08/15/2020 15:04:50 ( 22.66, 158.73) 08/15/2020 15:08:25 ( 10.04, 155.72)
3 08/16/2020 02:14:44 ( 12.87, 165.59) 08/16/2020 02:17:31 ( 22.67, 163.24)
4 08/16/2020 03:55:26 ( 10.06, 140.87) 08/16/2020 03:57:06 ( 15.93, 139.50)
5 08/16/2020 14:45:49 ( 22.67, 163.49) 08/16/2020 14:49:24 ( 10.05, 160.48)
6 08/17/2020 03:36:24 ( 10.05, 145.62) 08/17/2020 03:39:59 ( 22.68, 142.62)
7 08/17/2020 14:29:56 ( 11.58, 165.59) 08/17/2020 14:30:22 ( 10.05, 165.24)
8 08/17/2020 16:08:17 ( 22.67, 142.87) 08/17/2020 16:11:52 ( 10.05, 139.86)
9 08/18/2020 03:17:23 ( 10.05, 150.38) 08/18/2020 03:20:58 ( 22.67, 147.38)
10 08/18/2020 15:49:16 ( 22.67, 147.63) 08/18/2020 15:52:51 ( 10.05, 144.62)
11 08/19/2020 02:58:22 ( 10.05, 155.14) 08/19/2020 03:01:57 ( 22.67, 152.13)
12 08/19/2020 15:30:14 ( 22.67, 152.38) 08/19/2020 15:33:49 ( 10.05, 149.38)
13 08/20/2020 02:39:20 ( 10.05, 159.90) 08/20/2020 02:42:55 ( 22.67, 156.89)
14 08/20/2020 15:11:13 ( 22.68, 157.14) 08/20/2020 15:14:48 ( 10.06, 154.14)
15 08/21/2020 02:20:19 ( 10.04, 164.65) 08/21/2020 02:23:54 ( 22.67, 161.65)
16 08/21/2020 14:52:11 ( 22.68, 161.90) 08/21/2020 14:55:46 ( 10.06, 158.89)
17 08/22/2020 03:42:47 ( 10.05, 144.04) 08/22/2020 03:46:22 ( 22.67, 141.03)
18 08/22/2020 14:34:24 ( 18.34, 165.59) 08/22/2020 14:36:46 ( 10.00, 163.64)
19 08/22/2020 16:14:40 ( 22.68, 141.28) 08/22/2020 16:16:45 ( 15.34, 139.50)
20 08/23/2020 03:23:46 ( 10.04, 148.79) 08/23/2020 03:27:21 ( 22.67, 145.79)
21 08/23/2020 15:55:38 ( 22.68, 146.04) 08/23/2020 15:59:14 ( 10.00, 143.02)
22 08/24/2020 03:04:44 ( 10.04, 153.55) 08/24/2020 03:08:19 ( 22.67, 150.54)
23 08/24/2020 15:36:37 ( 22.68, 150.80) 08/24/2020 15:40:13 ( 10.00, 147.78)
24 08/25/2020 02:45:43 ( 10.04, 158.31) 08/25/2020 02:49:18 ( 22.66, 155.30)
25 08/25/2020 15:17:36 ( 22.68, 155.55) 08/25/2020 15:21:12 ( 10.01, 152.53)
26 08/26/2020 02:26:41 ( 10.04, 163.06) 08/26/2020 02:30:16 ( 22.66, 160.06)
27 08/26/2020 14:58:34 ( 22.69, 160.31) 08/26/2020 15:02:10 ( 10.01, 157.29)
28 08/27/2020 02:10:21 ( 19.49, 165.60) 08/27/2020 02:11:15 ( 22.66, 164.82)
29 08/27/2020 03:49:10 ( 10.04, 142.45) 08/27/2020 03:52:40 ( 22.37, 139.51)
30 08/27/2020 14:39:33 ( 22.69, 165.07) 08/27/2020 14:43:09 ( 10.01, 162.05)
31 08/27/2020 16:21:03 ( 22.68, 139.69) 08/27/2020 16:21:16 ( 21.92, 139.50)
32 08/28/2020 03:30:08 ( 10.04, 147.20) 08/28/2020 03:33:43 ( 22.66, 144.20)
